User: anonymous   Login
Location: Unspecified
(0.0000°N, 0.0000°E)
Time: 22:16:30
(UTC+01:00)
Language:

Ariane H10 - Orbit

View from above orbital plane
View from above orbital plane
View from above satellite
View from above satellite

Ground track
Ground track

The orbit data is extracted from the following two-line orbital elements,

1 19122U 88040B   14325.43611014  .00001288  00000-0  67357-2 0   631
2 19122 006.9316 192.9413 7153106 110.5308 041.8597 02.32440549175035
Epoch (UTC): 21 November 2014 10:27:59
Eccentricity: 0.7153106
inclination: 6.9316°
perigee height: 475 km
apogee height: 34914 km
right ascension of ascending node: 192.9413°
argument of perigee: 110.5308°
revolutions per day: 2.32440549
mean anomaly at epoch: 41.8597°
orbit number at epoch: 17503

The dashed part of the orbit path shows where the satellite is in the earth's shadow,  

DLR